Location: Unspecified
(56.5167°N, 0.0000°E)
Time: 11:15:51
(UTC+02:00)

Cosmos 2058 - Visible Passes

Search period start: 24 April 2024 00:00
Search period end: 04 May 2024 00:00
Orbit: 547 x 568 km, 82.5° (Epoch: 23 April)

Date Brightness Start Highest point End Pass type
(mag) Time Alt. Az. Time Alt. Az. Time Alt. Az.
24 Apr 3.6 23:08:43 10° NNW 23:12:38 50° W 23:16:31 10° S visible
25 Apr 3.8 23:06:46 10° NNW 23:10:37 44° W 23:14:26 10° SSW visible
26 Apr 4.1 23:04:48 10° NNW 23:08:35 39° W 23:12:19 10° SSW visible
27 Apr 4.3 23:02:50 10° NNW 23:06:31 35° W 23:10:11 10° SSW visible
28 Apr 4.5 23:00:53 10° NNW 23:04:28 31° W 23:08:01 10° SSW visible
29 Apr 4.8 22:58:54 10° NNW 23:02:22 28° W 23:05:49 10° SSW visible
30 Apr 5.0 22:56:56 10° NNW 23:00:16 25° W 23:03:34 10° SW visible
01 May 5.2 22:54:58 10° NW 22:58:09 23° W 23:01:18 10° SW visible
02 May 5.4 22:53:00 10° NW 22:56:00 20° W 22:59:00 10° SW visible
03 May 5.5 22:51:03 10° NW 22:53:51 18° W 22:56:38 10° SW visible
